Hourly Weather Barszczowka

Today, 9 March, Tuesday

Time Temperature Precipitation Wind Pressure Humidity
00:00 -6°C° 0 mm 3 mps 751 mmHg 86%
01:00 -5°C° 0 mm 2 mps 752 mmHg 87%
02:00 -5°C° 0 mm 2 mps 752 mmHg 88%
03:00 -5°C° 0 mm 2 mps 752 mmHg 87%
04:00 -5°C° 0 mm 2 mps 752 mmHg 86%
05:00 -5°C° 0 mm 2 mps 752 mmHg 85%
06:00 -5°C° 0 mm 2 mps 753 mmHg 82%
07:00 -5°C° 0 mm 2 mps 753 mmHg 79%
08:00 -3°C° 0 mm 1 mps 753 mmHg 76%
09:00 -3°C° 0 mm 1 mps 753 mmHg 70%
10:00 -2°C° 0 mm 1 mps 754 mmHg 64%
11:00 -1°C° 0 mm 1 mps 754 mmHg 58%
12:00 -1°C° 0 mm 1 mps 754 mmHg 54%
13:00 0°C° 0 mm 1 mps 754 mmHg 50%
14:00 -1°C° 0 mm 0 mps 754 mmHg 47%
15:00 -1°C° 0 mm 0 mps 754 mmHg 47%
16:00 -1°C° 0 mm 0 mps 754 mmHg 46%
17:00 -1°C° 0 mm 0 mps 754 mmHg 46%
18:00 -1°C° 0 mm 1 mps 754 mmHg 50%
19:00 -1°C° 0 mm 1 mps 754 mmHg 55%
20:00 -2°C° 0 mm 1 mps 754 mmHg 59%
21:00 -2°C° 0 mm 1 mps 754 mmHg 61%
22:00 -4°C° 0 mm 2 mps 754 mmHg 62%
23:00 -4°C° 0 mm 2 mps 754 mmHg 64%

Tomorrow, 10 March, Wednesday

Time Temperature Precipitation Wind Pressure Humidity
00:00 -4°C° 0 mm 2 mps 754 mmHg 65%
01:00 -4°C° 0 mm 2 mps 754 mmHg 66%
02:00 -4°C° 0 mm 2 mps 754 mmHg 66%
03:00 -5°C° 0 mm 2 mps 754 mmHg 68%
04:00 -5°C° 0 mm 2 mps 754 mmHg 69%
05:00 -3°C° 0 mm 1 mps 754 mmHg 70%
06:00 -3°C° 0 mm 1 mps 754 mmHg 70%
07:00 -3°C° 0 mm 1 mps 754 mmHg 70%
08:00 -3°C° 0 mm 1 mps 754 mmHg 70%
09:00 -4°C° 0 mm 2 mps 754 mmHg 64%
10:00 -3°C° 0 mm 2 mps 754 mmHg 58%
11:00 -2°C° 0 mm 2 mps 755 mmHg 52%
12:00 -1°C° 0 mm 2 mps 754 mmHg 49%
13:00 -1°C° 0 mm 2 mps 754 mmHg 46%
14:00 +1°C° 0 mm 2 mps 754 mmHg 43%
15:00 +2°C° 0 mm 1 mps 754 mmHg 43%
16:00 +2°C° 0 mm 1 mps 754 mmHg 44%
17:00 0°C° 0 mm 0 mps 754 mmHg 44%
18:00 +1°C° 0 mm 1 mps 754 mmHg 48%
19:00 0°C° 0 mm 1 mps 754 mmHg 52%
20:00 -3°C° 0 mm 2 mps 755 mmHg 56%
21:00 -3°C° 0 mm 2 mps 755 mmHg 57%
22:00 -1°C° 0 mm 1 mps 755 mmHg 58%
23:00 -2°C° 0 mm 1 mps 755 mmHg 59%

Day after tomorrow, 11 March, Thursday

Time Temperature Precipitation Wind Pressure Humidity
00:00 -2°C° 0 mm 1 mps 755 mmHg 59%
01:00 -2°C° 0 mm 1 mps 755 mmHg 59%
02:00 -2°C° 0 mm 1 mps 755 mmHg 59%
03:00 -4°C° 0 mm 2 mps 755 mmHg 60%
04:00 -4°C° 0 mm 2 mps 754 mmHg 61%
05:00 -4°C° 0 mm 2 mps 754 mmHg 62%
06:00 -4°C° 0 mm 2 mps 754 mmHg 62%
07:00 -4°C° 0 mm 2 mps 754 mmHg 62%
08:00 -4°C° 0 mm 2 mps 754 mmHg 63%
09:00 -4°C° 0 mm 3 mps 754 mmHg 59%
10:00 -3°C° 0 mm 4 mps 754 mmHg 55%
11:00 -1°C° 0 mm 4 mps 754 mmHg 52%
12:00 -1°C° 0 mm 5 mps 753 mmHg 52%
13:00 -1°C° 0 mm 5 mps 753 mmHg 52%
14:00 0°C° 0 mm 5 mps 752 mmHg 52%
15:00 0°C° 0 mm 5 mps 752 mmHg 55%
16:00 -1°C° 0 mm 5 mps 751 mmHg 58%
17:00 -1°C° 0 mm 5 mps 750 mmHg 60%
18:00 -2°C° 0 mm 6 mps 750 mmHg 63%
19:00 -3°C° 0 mm 6 mps 749 mmHg 66%
20:00 -3°C° 0 mm 7 mps 749 mmHg 68%
21:00 -3°C° 0 mm 7 mps 748 mmHg 70%
22:00 -3°C° 0 mm 7 mps 748 mmHg 71%
23:00 -3°C° 0 mm 7 mps 747 mmHg 72%

12 March, Friday

Time Temperature Precipitation Wind Pressure Humidity
00:00 -3°C° 0.5 mm 7 mps 746 mmHg 80%
01:00 -4°C° 0.5 mm 8 mps 745 mmHg 87%
02:00 -4°C° 0.5 mm 8 mps 744 mmHg 94%
03:00 -4°C° 0.4 mm 8 mps 743 mmHg 95%
04:00 -4°C° 0.4 mm 8 mps 743 mmHg 95%
05:00 -4°C° 0.4 mm 8 mps 742 mmHg 95%
06:00 -2°C° 0.4 mm 7 mps 741 mmHg 96%
07:00 -2°C° 0.4 mm 6 mps 741 mmHg 96%
08:00 0°C° 0.4 mm 5 mps 741 mmHg 96%
09:00 0°C° 0.6 mm 5 mps 741 mmHg 96%
10:00 +1°C° 0.6 mm 5 mps 741 mmHg 96%
11:00 +1°C° 0.6 mm 5 mps 741 mmHg 96%
12:00 +2°C° 0.1 mm 5 mps 742 mmHg 91%
13:00 +3°C° 0.1 mm 6 mps 742 mmHg 85%
14:00 +3°C° 0.1 mm 7 mps 742 mmHg 79%
15:00 +3°C° 0.1 mm 6 mps 743 mmHg 79%
16:00 +3°C° 0.1 mm 6 mps 743 mmHg 80%
17:00 +3°C° 0.1 mm 5 mps 744 mmHg 80%
18:00 +3°C° 0 mm 4 mps 745 mmHg 83%
19:00 0°C° 0 mm 4 mps 745 mmHg 86%
20:00 0°C° 0 mm 3 mps 746 mmHg 89%
21:00 0°C° 0 mm 3 mps 746 mmHg 89%
22:00 0°C° 0 mm 3 mps 746 mmHg 89%
23:00 -1°C° 0 mm 3 mps 746 mmHg 89%

13 March, Saturday

Time Temperature Precipitation Wind Pressure Humidity
00:00 -1°C° 0 mm 3 mps 746 mmHg 88%
01:00 -1°C° 0 mm 3 mps 746 mmHg 88%
02:00 -2°C° 0 mm 4 mps 746 mmHg 88%
03:00 -2°C° 0 mm 4 mps 746 mmHg 87%
04:00 -2°C° 0 mm 4 mps 745 mmHg 87%
05:00 -1°C° 0 mm 4 mps 745 mmHg 86%
06:00 -1°C° 0 mm 5 mps 745 mmHg 86%
07:00 -1°C° 0 mm 5 mps 745 mmHg 85%
08:00 -1°C° 0 mm 5 mps 745 mmHg 84%
09:00 +1°C° 0 mm 5 mps 745 mmHg 82%
10:00 +2°C° 0 mm 5 mps 745 mmHg 80%
11:00 +3°C° 0 mm 6 mps 745 mmHg 78%
12:00 +2°C° 0.3 mm 5 mps 744 mmHg 84%
13:00 +1°C° 0.3 mm 4 mps 744 mmHg 90%
14:00 +2°C° 0.3 mm 3 mps 744 mmHg 97%
15:00 +2°C° 0.3 mm 3 mps 744 mmHg 96%
16:00 +1°C° 0.3 mm 3 mps 744 mmHg 96%
17:00 +2°C° 0.3 mm 2 mps 744 mmHg 96%
18:00 +1°C° 0 mm 3 mps 744 mmHg 95%
19:00 0°C° 0 mm 3 mps 744 mmHg 95%
20:00 0°C° 0 mm 3 mps 744 mmHg 95%
21:00 0°C° 0 mm 3 mps 744 mmHg 94%
22:00 0°C° 0 mm 3 mps 744 mmHg 93%
23:00 0°C° 0 mm 3 mps 744 mmHg 93%

14 March, Sunday

Time Temperature Precipitation Wind Pressure Humidity
00:00 -1°C° 0 mm 4 mps 744 mmHg 91%
01:00 -1°C° 0 mm 4 mps 743 mmHg 90%
02:00 -1°C° 0 mm 5 mps 743 mmHg 88%
03:00 -1°C° 0 mm 5 mps 742 mmHg 88%
04:00 -1°C° 0 mm 5 mps 741 mmHg 89%
05:00 -1°C° 0 mm 5 mps 740 mmHg 89%
06:00 0°C° 0 mm 5 mps 740 mmHg 90%
07:00 +1°C° 0 mm 6 mps 739 mmHg 91%
08:00 +1°C° 0 mm 6 mps 739 mmHg 92%
09:00 +2°C° 0 mm 6 mps 738 mmHg 89%
10:00 +3°C° 0 mm 6 mps 738 mmHg 87%
11:00 +3°C° 0 mm 7 mps 738 mmHg 84%
12:00 +3°C° 0.8 mm 7 mps 737 mmHg 88%
13:00 +3°C° 0.8 mm 7 mps 737 mmHg 91%
14:00 +3°C° 0.8 mm 7 mps 737 mmHg 94%
15:00 +3°C° 0.7 mm 6 mps 737 mmHg 94%
16:00 +2°C° 0.7 mm 5 mps 737 mmHg 94%
17:00 +3°C° 0.7 mm 4 mps 737 mmHg 94%
18:00 +1°C° 0 mm 4 mps 737 mmHg 93%
19:00 +2°C° 0 mm 3 mps 737 mmHg 92%
20:00 +1°C° 0 mm 3 mps 738 mmHg 91%
21:00 +1°C° 0 mm 3 mps 738 mmHg 90%
22:00 +1°C° 0 mm 3 mps 738 mmHg 88%
23:00 +1°C° 0 mm 3 mps 738 mmHg 87%
Show more